START_TIME,STEP,MOV.,H8,t_acc.,H43,t_acc.,M25,t_acc.,H9,t_acc.
1979-07-14 00:00:29.800 ,0,0,0.,12.0,0.,12.0,0.,12.0,0.,12.0
1979-07-14 00:00:41.800 ,0,0,0.,12.0,0.,12.0,0.,12.0,0.,12.0
1979-07-14 00:00:53.800 ,1,0,1.,12.0,1.,12.0,0.,12.0,0.,12.0
1979-07-14 00:01:05.800 ,1,0,0.,12.0,0.,12.0,0.,12.0,0.,12.0
1979-07-14 00:01:17.800 ,1,0,0.,12.0,0.,12.0,0.,12.0,0.,12.0
1979-07-14 00:01:29.800 ,1,0,0.,12.0,0.,12.0,0.,12.0,0.,12.0
1979-07-14 00:01:41.800 ,2,0,0.,12.0,0.,12.0,0.,12.0,0.,12.0
1979-07-14 00:01:53.800 ,2,0,0.,12.0,0.,12.0,0.,12.0,0.,12.0
1979-07-14 00:02:05.800 ,2,0,0.,12.0,0.,12.0,0.,12.0,0.,12.0
1979-07-14 00:02:17.800 ,2,0,0.,12.0,0.,12.0,0.,12.0,0.,12.0
1979-07-14 00:02:29.800 ,3,0,0.,12.0,0.,12.0,0.,12.0,0.,12.0
1979-07-14 00:02:41.800 ,3,0,0.,12.0,0.,12.0,0.,12.0,0.,12.0
1979-07-14 00:02:53.800 ,3,0,0.,12.0,0.,12.0,0.,12.0,0.,12.0
1979-07-14 00:03:05.800 ,3,0,0.,12.0,0.,12.0,0.,12.0,0.,12.0
1979-07-14 00:03:17.800 ,4,0,0.,12.0,0.,12.0,0.,12.0,0.,12.0
1979-07-14 00:03:29.800 ,4,0,0.,12.0,0.,12.0,0.,12.0,0.,12.0
1979-07-14 00:03:41.800 ,4,0,0.,12.0,0.,12.0,0.,12.0,0.,12.0
1979-07-14 00:03:53.800 ,4,0,0.,12.0,0.,12.0,0.,12.0,0.,12.0
1979-07-14 00:04:05.800 ,5,0,0.,12.0,0.,12.0,0.,12.0,0.,12.0
1979-07-14 00:04:17.800 ,5,0,0.,12.0,0.,12.0,0.,12.0,0.,12.0
1979-07-14 00:04:29.800 ,5,0,0.,12.0,0.,12.0,0.,12.0,0.,12.0
1979-07-14 00:04:41.800 ,5,0,0.,12.0,0.,12.0,0.,12.0,0.,12.0
1979-07-14 00:04:53.800 ,6,0,0.,12.0,0.,12.0,0.,12.0,0.,12.0
1979-07-14 00:05:05.800 ,6,0,0.,12.0,0.,12.0,0.,12.0,0.,12.0
1979-07-14 00:05:17.800 ,6,0,0.,12.0,0.,12.0,0.,12.0,0.,12.0
1979-07-14 00:05:29.800 ,6,0,0.,12.0,0.,12.0,0.,12.0,0.,12.0
1979-07-14 00:05:41.800 ,7,0,0.,12.0,0.,12.0,0.,12.0,0.,12.0
1979-07-14 00:05:53.800 ,7,0,0.,12.0,0.,12.0,0.,12.0,0.,12.0
1979-07-14 00:06:05.800 ,7,0,0.,12.0,0.,12.0,0.,12.0,0.,12.0
1979-07-14 00:06:17.800 ,7,0,0.,12.0,0.,12.0,0.,12.0,0.,12.0
1979-07-14 00:06:29.800 ,7,0,0.,12.0,0.,12.0,0.,12.0,0.,12.0
1979-07-14 00:06:41.800 ,7,0,0.,12.0,0.,12.0,0.,12.0,0.,12.0
1979-07-14 00:06:53.800 ,7,0,0.,12.0,0.,12.0,0.,12.0,0.,12.0
1979-07-14 00:07:05.800 ,7,0,0.,12.0,0.,12.0,0.,12.0,0.,12.0
1979-07-14 00:07:17.800 ,6,0,0.,12.0,0.,12.0,0.,12.0,0.,12.0
1979-07-14 00:07:29.800 ,6,0,0.,12.0,0.,12.0,0.,12.0,0.,12.0
1979-07-14 00:07:41.800 ,6,0,0.,12.0,0.,12.0,0.,12.0,0.,12.0
1979-07-14 00:07:53.800 ,6,0,0.,12.0,0.,12.0,0.,12.0,0.,12.0
1979-07-14 00:08:05.800 ,5,0,0.,12.0,0.,12.0,0.,12.0,0.,12.0
1979-07-14 00:08:17.800 ,5,0,0.,12.0,0.,12.0,0.,12.0,0.,12.0
1979-07-14 00:08:29.800 ,5,0,1.,12.0,0.,12.0,0.,12.0,0.,12.0
1979-07-14 00:08:41.800 ,5,0,0.,12.0,0.,12.0,0.,12.0,0.,12.0
1979-07-14 00:08:53.800 ,4,0,0.,12.0,0.,12.0,0.,12.0,0.,12.0
1979-07-14 00:09:05.800 ,4,0,1.,12.0,0.,12.0,0.,12.0,0.,12.0
1979-07-14 00:09:17.800 ,4,0,0.,12.0,0.,12.0,0.,12.0,0.,12.0
1979-07-14 00:09:29.800 ,4,0,0.,12.0,0.,12.0,0.,12.0,0.,12.0
1979-07-14 00:09:41.800 ,3,0,0.,12.0,0.,12.0,0.,12.0,0.,12.0
1979-07-14 00:09:53.800 ,3,0,0.,12.0,0.,12.0,0.,12.0,0.,12.0
1979-07-14 00:10:05.800 ,3,0,0.,12.0,0.,12.0,0.,12.0,0.,12.0
1979-07-14 00:10:17.800 ,3,0,0.,12.0,0.,12.0,0.,12.0,0.,12.0
1979-07-14 00:10:29.800 ,2,0,0.,12.0,0.,12.0,0.,12.0,0.,12.0
1979-07-14 00:10:41.800 ,2,0,0.,12.0,0.,12.0,0.,12.0,0.,12.0
1979-07-14 00:10:53.800 ,2,0,0.,12.0,0.,12.0,0.,12.0,0.,12.0
1979-07-14 00:11:05.800 ,2,0,0.,12.0,0.,12.0,0.,12.0,0.,12.0
1979-07-14 00:11:17.800 ,1,0,0.,12.0,0.,12.0,0.,12.0,0.,12.0
1979-07-14 00:11:29.800 ,1,0,0.,12.0,0.,12.0,0.,12.0,0.,12.0
1979-07-14 00:11:41.800 ,1,0,0.,12.0,0.,12.0,0.,12.0,0.,12.0
1979-07-14 00:11:53.800 ,1,0,0.,12.0,0.,12.0,0.,12.0,0.,12.0
1979-07-14 00:12:05.800 ,0,0,0.,12.0,0.,12.0,0.,12.0,0.,12.0
1979-07-14 00:12:17.800 ,0,0,0.,12.0,0.,12.0,0.,12.0,0.,12.0
1979-07-14 00:12:29.800 ,0,0,0.,12.0,0.,12.0,0.,12.0,0.,12.0
1979-07-14 00:12:41.800 ,0,0,0.,12.0,0.,12.0,0.,12.0,0.,12.0
1979-07-14 00:12:53.800 ,0,0,0.,12.0,0.,12.0,0.,12.0,0.,12.0
1979-07-14 00:13:05.800 ,0,0,0.,12.0,0.,12.0,0.,12.0,0.,12.0
1979-07-14 00:13:17.800 ,0,0,0.,12.0,0.,12.0,0.,12.0,0.,12.0
1979-07-14 00:13:29.800 ,0,0,0.,12.0,0.,12.0,0.,12.0,0.,12.0
1979-07-14 00:13:41.800 ,1,0,0.,12.0,0.,12.0,0.,12.0,0.,12.0
1979-07-14 00:13:53.800 ,1,0,0.,12.0,0.,12.0,0.,12.0,0.,12.0
1979-07-14 00:14:05.800 ,1,0,0.,12.0,0.,12.0,0.,12.0,0.,12.0
1979-07-14 00:14:17.800 ,1,0,1.,12.0,0.,12.0,0.,12.0,0.,12.0
1979-07-14 00:14:29.800 ,2,0,0.,12.0,0.,12.0,0.,12.0,0.,12.0
1979-07-14 00:14:41.800 ,2,0,0.,12.0,0.,12.0,0.,12.0,0.,12.0
1979-07-14 00:14:53.800 ,2,0,0.,12.0,0.,12.0,0.,12.0,0.,12.0
1979-07-14 00:15:05.800 ,2,0,0.,12.0,0.,12.0,0.,12.0,0.,12.0
1979-07-14 00:15:17.800 ,3,0,1.,12.0,0.,12.0,0.,12.0,0.,12.0
1979-07-14 00:15:29.800 ,3,0,0.,12.0,0.,12.0,0.,12.0,0.,12.0
1979-07-14 00:15:41.800 ,3,0,0.,12.0,0.,12.0,0.,12.0,0.,12.0
1979-07-14 00:15:53.800 ,3,0,0.,12.0,0.,12.0,0.,12.0,0.,12.0
1979-07-14 00:16:05.800 ,4,0,0.,12.0,0.,12.0,0.,12.0,0.,12.0
1979-07-14 00:16:17.800 ,4,0,0.,12.0,0.,12.0,0.,12.0,0.,12.0
1979-07-14 00:16:29.800 ,4,0,0.,12.0,0.,12.0,0.,12.0,0.,12.0
1979-07-14 00:16:41.800 ,4,0,0.,12.0,0.,12.0,0.,12.0,0.,12.0
1979-07-14 00:16:53.800 ,5,0,0.,12.0,0.,12.0,0.,12.0,0.,12.0
1979-07-14 00:17:05.800 ,5,0,0.,12.0,0.,12.0,0.,12.0,0.,12.0
1979-07-14 00:17:17.800 ,5,0,0.,12.0,0.,12.0,0.,12.0,0.,12.0
1979-07-14 00:17:29.800 ,5,0,0.,12.0,0.,12.0,0.,12.0,0.,12.0
1979-07-14 00:17:41.800 ,6,0,0.,12.0,0.,12.0,0.,12.0,0.,12.0
1979-07-14 00:17:53.800 ,6,0,0.,12.0,0.,12.0,0.,12.0,0.,12.0
1979-07-14 00:18:05.800 ,6,0,0.,12.0,0.,12.0,0.,12.0,0.,12.0
1979-07-14 00:18:17.800 ,6,0,0.,12.0,0.,12.0,0.,12.0,0.,12.0
1979-07-14 00:18:29.800 ,7,0,0.,12.0,0.,12.0,0.,12.0,0.,12.0
1979-07-14 00:18:41.800 ,7,0,0.,12.0,0.,12.0,0.,12.0,0.,12.0
1979-07-14 00:18:53.800 ,7,0,0.,12.0,0.,12.0,0.,12.0,0.,12.0
1979-07-14 00:19:05.800 ,7,0,0.,12.0,0.,12.0,0.,12.0,0.,12.0
1979-07-14 00:19:17.800 ,3,1,0.,12.0,0.,12.0,0.,12.0,0.,12.0
1979-07-14 00:19:29.800 ,3,1,0.,12.0,0.,12.0,0.,12.0,0.,12.0
1979-07-14 00:19:41.800 ,0,1,0.,12.0,0.,12.0,0.,12.0,0.,12.0
1979-07-14 00:19:53.800 ,0,1,0.,12.0,0.,12.0,0.,12.0,0.,12.0
1979-07-14 00:20:05.800 ,4,1,0.,12.0,0.,12.0,0.,12.0,0.,12.0
1979-07-14 00:20:17.800 ,4,1,0.,12.0,0.,12.0,0.,12.0,0.,12.0
1979-07-14 00:20:29.800 ,7,1,0.,12.0,0.,12.0,0.,12.0,0.,12.0
1979-07-14 00:20:41.800 ,7,1,0.,12.0,0.,12.0,0.,12.0,0.,12.0
1979-07-14 00:20:53.800 ,3,1,0.,12.0,0.,12.0,0.,12.0,0.,12.0
1979-07-14 00:21:05.800 ,3,1,0.,12.0,0.,12.0,0.,12.0,0.,12.0
1979-07-14 00:21:17.800 ,0,1,0.,12.0,0.,12.0,0.,12.0,0.,12.0
1979-07-14 00:21:29.800 ,0,1,0.,12.0,0.,12.0,0.,12.0,0.,12.0
1979-07-14 00:21:41.800 ,4,1,0.,12.0,0.,12.0,0.,12.0,0.,12.0
1979-07-14 00:21:53.800 ,4,1,0.,12.0,0.,12.0,0.,12.0,0.,12.0
1979-07-14 00:22:05.800 ,7,1,0.,12.0,0.,12.0,0.,12.0,0.,12.0
1979-07-14 00:22:17.800 ,7,1,0.,12.0,0.,12.0,0.,12.0,0.,12.0
1979-07-14 00:22:29.800 ,3,1,0.,12.0,0.,12.0,0.,12.0,0.,12.0
1979-07-14 00:22:41.800 ,3,1,0.,12.0,0.,12.0,0.,12.0,0.,12.0
1979-07-14 00:22:53.800 ,0,1,0.,12.0,0.,12.0,0.,12.0,0.,12.0
1979-07-14 00:23:05.800 ,0,1,0.,12.0,0.,12.0,0.,12.0,0.,12.0
1979-07-14 00:23:17.800 ,4,1,0.,12.0,0.,12.0,0.,12.0,0.,12.0
1979-07-14 00:23:29.800 ,4,1,0.,12.0,0.,12.0,0.,12.0,0.,12.0
1979-07-14 00:23:41.800 ,7,1,0.,12.0,0.,12.0,0.,12.0,0.,12.0
1979-07-14 00:23:53.800 ,7,1,0.,12.0,0.,12.0,0.,12.0,0.,12.0
1979-07-14 00:24:05.800 ,3,1,0.,12.0,0.,12.0,0.,12.0,0.,12.0
1979-07-14 00:24:17.800 ,3,1,0.,12.0,0.,12.0,0.,12.0,0.,12.0
1979-07-14 00:24:29.800 ,0,1,0.,12.0,0.,12.0,0.,12.0,0.,12.0
1979-07-14 00:24:41.800 ,0,1,0.,12.0,0.,12.0,0.,12.0,0.,12.0
1979-07-14 00:24:53.800 ,4,1,0.,12.0,0.,12.0,0.,12.0,0.,12.0
1979-07-14 00:25:05.800 ,4,1,0.,12.0,0.,12.0,0.,12.0,0.,12.0
1979-07-14 00:25:17.800 ,7,1,0.,12.0,0.,12.0,0.,12.0,0.,12.0
1979-07-14 00:25:29.800 ,7,1,0.,12.0,0.,12.0,0.,12.0,0.,12.0
1979-07-14 00:25:41.800 ,3,1,0.,12.0,0.,12.0,0.,12.0,0.,12.0
1979-07-14 00:25:53.800 ,3,1,0.,12.0,0.,12.0,0.,12.0,0.,12.0
1979-07-14 00:26:05.800 ,0,1,0.,12.0,0.,12.0,0.,12.0,0.,12.0
1979-07-14 00:26:17.800 ,0,1,0.,12.0,0.,12.0,0.,12.0,0.,12.0
1979-07-14 00:26:29.800 ,4,1,0.,12.0,0.,12.0,0.,12.0,0.,12.0
1979-07-14 00:26:41.800 ,4,1,0.,12.0,0.,12.0,0.,12.0,0.,12.0
1979-07-14 00:26:53.800 ,7,1,0.,12.0,0.,12.0,0.,12.0,0.,12.0
1979-07-14 00:27:05.800 ,7,1,0.,12.0,0.,12.0,0.,12.0,0.,12.0
1979-07-14 00:27:17.800 ,3,1,0.,12.0,0.,12.0,0.,12.0,0.,12.0
1979-07-14 00:27:29.800 ,3,1,1.,12.0,0.,12.0,0.,12.0,0.,12.0
1979-07-14 00:27:41.800 ,0,1,0.,12.0,0.,12.0,0.,12.0,0.,12.0
1979-07-14 00:27:53.800 ,0,1,0.,12.0,0.,12.0,0.,12.0,0.,12.0
1979-07-14 00:28:05.800 ,4,1,0.,12.0,0.,12.0,0.,12.0,0.,12.0
1979-07-14 00:28:17.800 ,4,1,0.,12.0,0.,12.0,0.,12.0,0.,12.0
1979-07-14 00:28:29.800 ,7,1,0.,12.0,0.,12.0,0.,12.0,0.,12.0
1979-07-14 00:28:41.800 ,7,1,0.,12.0,0.,12.0,0.,12.0,0.,12.0
1979-07-14 00:28:53.800 ,3,1,0.,12.0,0.,12.0,0.,12.0,0.,12.0
1979-07-14 00:29:05.800 ,3,1,0.,12.0,0.,12.0,0.,12.0,0.,12.0
1979-07-14 00:29:17.800 ,0,1,0.,12.0,0.,12.0,0.,12.0,0.,12.0
1979-07-14 00:29:29.800 ,0,1,0.,12.0,0.,12.0,0.,12.0,0.,12.0
1979-07-14 00:29:41.800 ,0,0,0.,12.0,0.,12.0,0.,12.0,0.,12.0
1979-07-14 00:29:53.800 ,0,0,0.,12.0,0.,12.0,0.,12.0,0.,12.0
1979-07-14 00:30:05.800 ,0,0,0.,12.0,0.,12.0,0.,12.0,0.,12.0
1979-07-14 00:30:17.800 ,0,0,0.,12.0,0.,12.0,0.,12.0,0.,12.0
1979-07-14 00:30:29.800 ,5,0,1.,12.0,0.,12.0,0.,12.0,0.,12.0
1979-07-14 00:30:41.800 ,5,0,0.,12.0,0.,12.0,0.,12.0,0.,12.0
1979-07-14 00:30:53.800 ,5,0,0.,12.0,0.,12.0,0.,12.0,0.,12.0
1979-07-14 00:31:05.800 ,5,0,0.,12.0,0.,12.0,0.,12.0,0.,12.0
1979-07-14 00:31:17.800 ,4,0,0.,12.0,0.,12.0,0.,12.0,0.,12.0
1979-07-14 00:31:29.800 ,4,0,1.,12.0,0.,12.0,0.,12.0,0.,12.0
1979-07-14 00:31:41.800 ,4,0,0.,12.0,0.,12.0,0.,12.0,0.,12.0
1979-07-14 00:31:53.800 ,4,0,1.,12.0,0.,12.0,0.,12.0,0.,12.0
1979-07-14 00:32:05.800 ,3,0,0.,12.0,0.,12.0,0.,12.0,0.,12.0
1979-07-14 00:32:17.800 ,3,0,0.,12.0,0.,12.0,0.,12.0,0.,12.0
1979-07-14 00:32:29.800 ,3,0,0.,12.0,0.,12.0,0.,12.0,0.,12.0
1979-07-14 00:32:41.800 ,3,0,0.,12.0,0.,12.0,0.,12.0,0.,12.0
1979-07-14 00:32:53.800 ,2,0,0.,12.0,0.,12.0,0.,12.0,0.,12.0
1979-07-14 00:33:05.800 ,2,0,0.,12.0,0.,12.0,0.,12.0,0.,12.0
1979-07-14 00:33:17.800 ,2,0,0.,12.0,0.,12.0,0.,12.0,0.,12.0
1979-07-14 00:33:29.800 ,2,0,1.,12.0,0.,12.0,0.,12.0,0.,12.0
1979-07-14 00:33:41.800 ,1,0,0.,12.0,0.,12.0,0.,12.0,0.,12.0
1979-07-14 00:33:53.800 ,1,0,0.,12.0,0.,12.0,0.,12.0,0.,12.0
1979-07-14 00:34:05.800 ,1,0,0.,12.0,0.,12.0,0.,12.0,0.,12.0
1979-07-14 00:34:17.800 ,1,0,0.,12.0,0.,12.0,0.,12.0,0.,12.0
1979-07-14 00:34:29.800 ,0,0,0.,12.0,0.,12.0,0.,12.0,0.,12.0
1979-07-14 00:34:41.800 ,0,0,0.,12.0,0.,12.0,0.,12.0,0.,12.0
1979-07-14 00:34:53.800 ,0,0,0.,12.0,0.,12.0,0.,12.0,0.,12.0
1979-07-14 00:35:05.800 ,0,0,0.,12.0,0.,12.0,0.,12.0,0.,12.0
1979-07-14 00:35:17.800 ,0,0,0.,12.0,0.,12.0,0.,12.0,0.,12.0
1979-07-14 00:35:29.800 ,0,0,0.,12.0,0.,12.0,0.,12.0,0.,12.0
1979-07-14 00:35:41.800 ,0,0,0.,12.0,0.,12.0,0.,12.0,0.,12.0
1979-07-14 00:35:53.800 ,0,0,0.,12.0,0.,12.0,0.,12.0,0.,12.0
1979-07-14 00:36:05.800 ,1,0,0.,12.0,0.,12.0,0.,12.0,0.,12.0
1979-07-14 00:36:17.800 ,1,0,0.,12.0,0.,12.0,0.,12.0,0.,12.0
1979-07-14 00:36:29.800 ,1,0,0.,12.0,0.,12.0,0.,12.0,0.,12.0
1979-07-14 00:36:41.800 ,1,0,0.,12.0,0.,12.0,0.,12.0,0.,12.0
1979-07-14 00:36:53.800 ,2,0,0.,12.0,0.,12.0,0.,12.0,0.,12.0
1979-07-14 00:37:05.800 ,2,0,0.,12.0,0.,12.0,0.,12.0,0.,12.0
1979-07-14 00:37:17.800 ,2,0,0.,12.0,0.,12.0,0.,12.0,0.,12.0
1979-07-14 00:37:29.800 ,2,0,0.,12.0,0.,12.0,0.,12.0,0.,12.0
1979-07-14 00:37:41.800 ,3,0,0.,12.0,0.,12.0,0.,12.0,0.,12.0
1979-07-14 00:37:53.800 ,3,0,0.,12.0,0.,12.0,0.,12.0,0.,12.0
1979-07-14 00:38:05.800 ,3,0,1.,12.0,0.,12.0,0.,12.0,0.,12.0
1979-07-14 00:38:17.800 ,3,0,0.,12.0,0.,12.0,0.,12.0,0.,12.0
1979-07-14 00:38:29.800 ,4,0,0.,12.0,0.,12.0,0.,12.0,0.,12.0
1979-07-14 00:38:41.800 ,4,0,1.,12.0,0.,12.0,0.,12.0,0.,12.0
1979-07-14 00:38:53.800 ,4,0,0.,12.0,0.,12.0,0.,12.0,0.,12.0
1979-07-14 00:39:05.800 ,4,0,0.,12.0,0.,12.0,0.,12.0,0.,12.0
1979-07-14 00:39:17.800 ,5,0,0.,12.0,0.,12.0,0.,12.0,0.,12.0
1979-07-14 00:39:29.800 ,5,0,0.,12.0,0.,12.0,0.,12.0,0.,12.0
1979-07-14 00:39:41.800 ,5,0,0.,12.0,0.,12.0,0.,12.0,0.,12.0
1979-07-14 00:39:53.800 ,5,0,0.,12.0,0.,12.0,0.,12.0,0.,12.0
1979-07-14 00:40:05.800 ,6,0,0.,12.0,0.,12.0,0.,12.0,0.,12.0
1979-07-14 00:40:17.800 ,6,0,0.,12.0,0.,12.0,0.,12.0,0.,12.0
1979-07-14 00:40:29.800 ,6,0,0.,12.0,0.,12.0,0.,12.0,0.,12.0
1979-07-14 00:40:41.800 ,6,0,0.,12.0,0.,12.0,0.,12.0,0.,12.0
1979-07-14 00:40:53.800 ,7,0,0.,12.0,0.,12.0,0.,12.0,0.,12.0
1979-07-14 00:41:05.800 ,7,0,0.,12.0,0.,12.0,0.,12.0,0.,12.0
1979-07-14 00:41:17.800 ,7,0,0.,12.0,0.,12.0,0.,12.0,0.,12.0
1979-07-14 00:41:29.800 ,7,0,0.,12.0,0.,12.0,0.,12.0,0.,12.0
1979-07-14 00:41:41.800 ,7,0,0.,12.0,0.,12.0,0.,12.0,0.,12.0
1979-07-14 00:41:53.800 ,7,0,0.,12.0,0.,12.0,0.,12.0,0.,12.0
1979-07-14 00:42:05.800 ,7,0,0.,12.0,0.,12.0,0.,12.0,0.,12.0
1979-07-14 00:42:17.800 ,7,0,0.,12.0,0.,12.0,0.,12.0,0.,12.0
1979-07-14 00:42:29.800 ,6,0,0.,12.0,0.,12.0,0.,12.0,0.,12.0
1979-07-14 00:42:41.800 ,6,0,0.,12.0,0.,12.0,0.,12.0,0.,12.0
1979-07-14 00:42:53.800 ,6,0,0.,12.0,0.,12.0,0.,12.0,0.,12.0
1979-07-14 00:43:05.800 ,6,0,0.,12.0,0.,12.0,0.,12.0,0.,12.0
1979-07-14 00:43:17.800 ,5,0,0.,12.0,0.,12.0,0.,12.0,0.,12.0
1979-07-14 00:43:29.800 ,5,0,0.,12.0,0.,12.0,0.,12.0,0.,12.0
1979-07-14 00:43:41.800 ,5,0,0.,12.0,0.,12.0,0.,12.0,0.,12.0
1979-07-14 00:43:53.800 ,5,0,0.,12.0,0.,12.0,0.,12.0,0.,12.0
1979-07-14 00:44:05.800 ,4,0,0.,12.0,0.,12.0,0.,12.0,0.,12.0
1979-07-14 00:44:17.800 ,4,0,0.,12.0,0.,12.0,0.,12.0,0.,12.0
1979-07-14 00:44:29.800 ,4,0,0.,12.0,0.,12.0,0.,12.0,0.,12.0
1979-07-14 00:44:41.800 ,4,0,0.,12.0,0.,12.0,0.,12.0,0.,12.0
1979-07-14 00:44:53.800 ,3,0,0.,12.0,0.,12.0,0.,12.0,0.,12.0
1979-07-14 00:45:05.800 ,3,0,0.,12.0,0.,12.0,0.,12.0,0.,12.0
1979-07-14 00:45:17.800 ,3,0,0.,12.0,0.,12.0,0.,12.0,0.,12.0
1979-07-14 00:45:29.800 ,3,0,0.,12.0,0.,12.0,0.,12.0,0.,12.0
1979-07-14 00:45:41.800 ,2,0,0.,12.0,0.,12.0,0.,12.0,0.,12.0
1979-07-14 00:45:53.800 ,2,0,0.,12.0,0.,12.0,0.,12.0,0.,12.0
1979-07-14 00:46:05.800 ,2,0,0.,12.0,0.,12.0,0.,12.0,0.,12.0
1979-07-14 00:46:17.800 ,2,0,0.,12.0,0.,12.0,0.,12.0,0.,12.0
1979-07-14 00:46:29.800 ,1,0,0.,12.0,0.,12.0,0.,12.0,0.,12.0
1979-07-14 00:46:41.800 ,1,0,0.,12.0,0.,12.0,0.,12.0,0.,12.0
1979-07-14 00:46:53.800 ,1,0,0.,12.0,0.,12.0,0.,12.0,0.,12.0
1979-07-14 00:47:05.800 ,1,0,0.,12.0,0.,12.0,0.,12.0,0.,12.0
1979-07-14 00:47:17.800 ,0,0,0.,12.0,0.,12.0,0.,12.0,0.,12.0
1979-07-14 00:47:29.800 ,0,0,0.,12.0,0.,12.0,0.,12.0,0.,12.0
1979-07-14 00:47:41.800 ,0,0,1.,12.0,0.,12.0,0.,12.0,0.,12.0
1979-07-14 00:47:53.800 ,0,0,0.,12.0,0.,12.0,0.,12.0,0.,12.0
1979-07-14 00:48:05.800 ,0,0,0.,12.0,0.,12.0,0.,12.0,0.,12.0
1979-07-14 00:48:17.800 ,0,0,0.,12.0,0.,12.0,0.,12.0,0.,12.0
1979-07-14 00:48:29.800 ,0,0,0.,12.0,0.,12.0,0.,12.0,0.,12.0
1979-07-14 00:48:41.800 ,0,0,0.,12.0,0.,12.0,0.,12.0,0.,12.0
1979-07-14 00:48:53.800 ,1,0,0.,12.0,0.,12.0,0.,12.0,0.,12.0
1979-07-14 00:49:05.800 ,1,0,0.,12.0,0.,12.0,0.,12.0,0.,12.0
1979-07-14 00:49:17.800 ,1,0,0.,12.0,0.,12.0,0.,12.0,0.,12.0
1979-07-14 00:49:29.800 ,1,0,0.,12.0,0.,12.0,0.,12.0,0.,12.0
1979-07-14 00:49:41.800 ,2,0,0.,12.0,0.,12.0,0.,12.0,0.,12.0
1979-07-14 00:49:53.800 ,2,0,0.,12.0,0.,12.0,0.,12.0,0.,12.0
1979-07-14 00:50:05.800 ,2,0,1.,12.0,0.,12.0,0.,12.0,0.,12.0
1979-07-14 00:50:17.800 ,2,0,0.,12.0,0.,12.0,0.,12.0,0.,12.0
1979-07-14 00:50:29.800 ,3,0,0.,12.0,0.,12.0,0.,12.0,0.,12.0
1979-07-14 00:50:41.800 ,3,0,0.,12.0,0.,12.0,0.,12.0,0.,12.0
1979-07-14 00:50:53.800 ,3,0,0.,12.0,0.,12.0,0.,12.0,0.,12.0
1979-07-14 00:51:05.800 ,3,0,0.,12.0,0.,12.0,0.,12.0,0.,12.0
1979-07-14 00:51:17.800 ,4,0,0.,12.0,0.,12.0,0.,12.0,0.,12.0
1979-07-14 00:51:29.800 ,4,0,0.,12.0,0.,12.0,0.,12.0,0.,12.0
1979-07-14 00:51:41.800 ,4,0,0.,12.0,0.,12.0,0.,12.0,0.,12.0
1979-07-14 00:51:53.800 ,4,0,0.,12.0,0.,12.0,0.,12.0,0.,12.0
1979-07-14 00:52:05.800 ,5,0,0.,12.0,0.,12.0,0.,12.0,0.,12.0
1979-07-14 00:52:17.800 ,5,0,0.,12.0,0.,12.0,0.,12.0,0.,12.0
1979-07-14 00:52:29.800 ,5,0,0.,12.0,0.,12.0,0.,12.0,0.,12.0
1979-07-14 00:52:41.800 ,5,0,0.,12.0,0.,12.0,0.,12.0,0.,12.0
1979-07-14 00:52:53.800 ,6,0,0.,12.0,0.,12.0,0.,12.0,0.,12.0
1979-07-14 00:53:05.800 ,6,0,0.,12.0,0.,12.0,0.,12.0,0.,12.0
1979-07-14 00:53:17.800 ,6,0,0.,12.0,0.,12.0,0.,12.0,0.,12.0
1979-07-14 00:53:29.800 ,6,0,0.,12.0,0.,12.0,0.,12.0,0.,12.0
1979-07-14 00:53:41.800 ,7,0,0.,12.0,0.,12.0,0.,12.0,0.,12.0
1979-07-14 00:53:53.800 ,7,0,0.,12.0,0.,12.0,0.,12.0,0.,12.0
1979-07-14 00:54:05.800 ,7,0,0.,12.0,0.,12.0,0.,12.0,0.,12.0
1979-07-14 00:54:17.800 ,7,0,0.,12.0,0.,12.0,0.,12.0,0.,12.0
1979-07-14 00:54:29.800 ,7,0,0.,12.0,0.,12.0,0.,12.0,0.,12.0
1979-07-14 00:54:41.800 ,7,0,0.,12.0,0.,12.0,0.,12.0,0.,12.0
1979-07-14 00:54:53.800 ,7,0,0.,12.0,0.,12.0,0.,12.0,0.,12.0
1979-07-14 00:55:05.800 ,7,0,0.,12.0,0.,12.0,0.,12.0,0.,12.0
1979-07-14 00:55:17.800 ,6,0,0.,12.0,0.,12.0,0.,12.0,0.,12.0
1979-07-14 00:55:29.800 ,6,0,0.,12.0,0.,12.0,0.,12.0,0.,12.0
1979-07-14 00:55:41.800 ,6,0,0.,12.0,0.,12.0,0.,12.0,0.,12.0
1979-07-14 00:55:53.800 ,6,0,0.,12.0,0.,12.0,0.,12.0,0.,12.0
1979-07-14 00:56:05.800 ,5,0,0.,12.0,0.,12.0,0.,12.0,0.,12.0
1979-07-14 00:56:17.800 ,5,0,0.,12.0,0.,12.0,0.,12.0,0.,12.0
1979-07-14 00:56:29.800 ,5,0,0.,12.0,0.,12.0,0.,12.0,0.,12.0
1979-07-14 00:56:41.800 ,5,0,0.,12.0,0.,12.0,0.,12.0,0.,12.0
1979-07-14 00:56:53.800 ,4,0,0.,12.0,0.,12.0,0.,12.0,0.,12.0
1979-07-14 00:57:05.800 ,4,0,0.,12.0,0.,12.0,0.,12.0,0.,12.0
1979-07-14 00:57:17.800 ,4,0,0.,12.0,0.,12.0,0.,12.0,0.,12.0
1979-07-14 00:57:29.800 ,4,0,0.,12.0,0.,12.0,0.,12.0,0.,12.0
1979-07-14 00:57:41.800 ,3,0,0.,12.0,0.,12.0,0.,12.0,0.,12.0
1979-07-14 00:57:53.800 ,3,0,0.,12.0,0.,12.0,0.,12.0,0.,12.0
1979-07-14 00:58:05.800 ,3,0,0.,12.0,0.,12.0,0.,12.0,0.,12.0
1979-07-14 00:58:17.800 ,3,0,0.,12.0,0.,12.0,0.,12.0,0.,12.0
1979-07-14 00:58:29.800 ,2,0,0.,12.0,0.,12.0,0.,12.0,0.,12.0
1979-07-14 00:58:41.800 ,2,0,0.,12.0,0.,12.0,0.,12.0,0.,12.0
1979-07-14 00:58:53.800 ,2,0,0.,12.0,0.,12.0,0.,12.0,0.,12.0
1979-07-14 00:59:05.800 ,2,0,0.,12.0,0.,12.0,0.,12.0,0.,12.0
1979-07-14 00:59:17.800 ,1,0,0.,12.0,0.,12.0,0.,12.0,0.,12.0
1979-07-14 00:59:29.800 ,1,0,0.,12.0,0.,12.0,0.,12.0,0.,12.0
1979-07-14 00:59:41.800 ,1,0,0.,12.0,0.,12.0,0.,12.0,0.,12.0
1979-07-14 00:59:53.800 ,1,0,0.,12.0,0.,12.0,0.,12.0,0.,12.0
1979-07-14 01:00:05.800 ,0,0,0.,12.0,0.,12.0,0.,12.0,0.,12.0
1979-07-14 01:00:17.800 ,0,0,0.,12.0,0.,12.0,0.,12.0,0.,12.0
1979-07-14 01:00:29.800 ,0,0,0.,12.0,0.,12.0,0.,12.0,0.,12.0
1979-07-14 01:00:41.800 ,0,0,0.,12.0,0.,12.0,0.,12.0,0.,12.0
1979-07-14 01:00:53.800 ,0,0,0.,12.0,0.,12.0,0.,12.0,0.,12.0
1979-07-14 01:01:05.800 ,0,0,0.,12.0,0.,12.0,0.,12.0,0.,12.0
1979-07-14 01:01:17.800 ,0,0,0.,12.0,0.,12.0,0.,12.0,0.,12.0
1979-07-14 01:01:29.800 ,0,0,0.,12.0,0.,12.0,0.,12.0,0.,12.0
1979-07-14 01:01:41.800 ,1,0,0.,12.0,0.,12.0,0.,12.0,0.,12.0
1979-07-14 01:01:53.800 ,1,0,0.,12.0,0.,12.0,0.,12.0,0.,12.0
1979-07-14 01:02:05.800 ,1,0,0.,12.0,0.,12.0,0.,12.0,0.,12.0
1979-07-14 01:02:17.800 ,1,0,0.,12.0,0.,12.0,0.,12.0,0.,12.0
1979-07-14 01:02:29.800 ,2,0,0.,12.0,0.,12.0,0.,12.0,0.,12.0
1979-07-14 01:02:41.800 ,2,0,0.,12.0,0.,12.0,0.,12.0,0.,12.0
1979-07-14 01:02:53.800 ,2,0,0.,12.0,0.,12.0,0.,12.0,0.,12.0
1979-07-14 01:03:05.800 ,2,0,0.,12.0,0.,12.0,0.,12.0,0.,12.0
1979-07-14 01:03:17.800 ,3,0,0.,12.0,0.,12.0,0.,12.0,0.,12.0
1979-07-14 01:03:29.800 ,3,0,0.,12.0,0.,12.0,0.,12.0,0.,12.0
1979-07-14 01:03:41.800 ,3,0,0.,12.0,0.,12.0,0.,12.0,0.,12.0
1979-07-14 01:03:53.800 ,3,0,0.,12.0,0.,12.0,0.,12.0,0.,12.0
1979-07-14 01:04:05.800 ,4,0,0.,12.0,0.,12.0,0.,12.0,0.,12.0
1979-07-14 01:04:17.800 ,4,0,0.,12.0,0.,12.0,0.,12.0,0.,12.0
1979-07-14 01:04:29.800 ,4,0,0.,12.0,0.,12.0,0.,12.0,0.,12.0
1979-07-14 01:04:41.800 ,4,0,0.,12.0,0.,12.0,0.,12.0,0.,12.0
1979-07-14 01:04:53.800 ,5,0,0.,12.0,0.,12.0,0.,12.0,0.,12.0
1979-07-14 01:05:05.800 ,5,0,0.,12.0,0.,12.0,0.,12.0,0.,12.0
1979-07-14 01:05:17.800 ,5,0,0.,12.0,0.,12.0,0.,12.0,0.,12.0
1979-07-14 01:05:29.800 ,5,0,0.,12.0,0.,12.0,0.,12.0,0.,12.0
1979-07-14 01:05:41.800 ,6,0,0.,12.0,0.,12.0,0.,12.0,0.,12.0
1979-07-14 01:05:53.800 ,6,0,0.,12.0,0.,12.0,0.,12.0,0.,12.0
1979-07-14 01:06:05.800 ,6,0,0.,12.0,0.,12.0,0.,12.0,0.,12.0
1979-07-14 01:06:17.800 ,6,0,0.,12.0,0.,12.0,0.,12.0,0.,12.0
1979-07-14 01:06:29.800 ,7,0,0.,12.0,0.,12.0,0.,12.0,0.,12.0
1979-07-14 01:06:41.800 ,7,0,0.,12.0,0.,12.0,0.,12.0,0.,12.0
1979-07-14 01:06:53.800 ,7,0,0.,12.0,0.,12.0,0.,12.0,0.,12.0
1979-07-14 01:07:05.800 ,7,0,0.,12.0,0.,12.0,0.,12.0,0.,12.0
1979-07-14 01:07:17.800 ,3,1,0.,12.0,0.,12.0,0.,12.0,0.,12.0
1979-07-14 01:07:29.800 ,3,1,0.,12.0,0.,12.0,0.,12.0,0.,12.0
1979-07-14 01:07:41.800 ,0,1,0.,12.0,0.,12.0,0.,12.0,0.,12.0
1979-07-14 01:07:53.800 ,0,1,0.,12.0,0.,12.0,0.,12.0,0.,12.0
1979-07-14 01:08:05.800 ,4,1,0.,12.0,0.,12.0,0.,12.0,0.,12.0
1979-07-14 01:08:17.800 ,4,1,1.,12.0,0.,12.0,0.,12.0,0.,12.0
1979-07-14 01:08:29.800 ,7,1,0.,12.0,0.,12.0,0.,12.0,0.,12.0
1979-07-14 01:08:41.800 ,7,1,0.,12.0,0.,12.0,0.,12.0,0.,12.0
1979-07-14 01:08:53.800 ,3,1,0.,12.0,0.,12.0,0.,12.0,0.,12.0
1979-07-14 01:09:05.800 ,3,1,0.,12.0,0.,12.0,0.,12.0,0.,12.0
1979-07-14 01:09:17.800 ,0,1,0.,12.0,0.,12.0,0.,12.0,0.,12.0
1979-07-14 01:09:29.800 ,0,1,0.,12.0,0.,12.0,0.,12.0,0.,12.0
1979-07-14 01:09:41.800 ,4,1,0.,12.0,0.,12.0,0.,12.0,0.,12.0
1979-07-14 01:09:53.800 ,4,1,0.,12.0,0.,12.0,0.,12.0,0.,12.0
1979-07-14 01:10:05.800 ,7,1,0.,12.0,0.,12.0,0.,12.0,0.,12.0
1979-07-14 01:10:17.800 ,7,1,0.,12.0,0.,12.0,0.,12.0,0.,12.0
1979-07-14 01:10:29.800 ,3,1,0.,12.0,0.,12.0,0.,12.0,0.,12.0
1979-07-14 01:10:41.800 ,3,1,1.,12.0,0.,12.0,0.,12.0,0.,12.0
1979-07-14 01:10:53.800 ,0,1,0.,12.0,0.,12.0,0.,12.0,0.,12.0
1979-07-14 01:11:05.800 ,0,1,0.,12.0,0.,12.0,0.,12.0,0.,12.0
1979-07-14 01:11:17.800 ,4,1,0.,12.0,0.,12.0,0.,12.0,0.,12.0
1979-07-14 01:11:29.800 ,4,1,0.,12.0,0.,12.0,0.,12.0,0.,12.0
1979-07-14 01:11:41.800 ,7,1,0.,12.0,0.,12.0,0.,12.0,0.,12.0
1979-07-14 01:11:53.800 ,7,1,0.,12.0,0.,12.0,0.,12.0,0.,12.0
1979-07-14 01:12:05.800 ,3,1,0.,12.0,0.,12.0,0.,12.0,0.,12.0
1979-07-14 01:12:17.800 ,3,1,1.,12.0,0.,12.0,0.,12.0,0.,12.0
1979-07-14 01:12:29.800 ,0,1,0.,12.0,0.,12.0,0.,12.0,0.,12.0
1979-07-14 01:12:41.800 ,0,1,0.,12.0,0.,12.0,0.,12.0,0.,12.0
1979-07-14 01:12:53.800 ,4,1,0.,12.0,0.,12.0,0.,12.0,0.,12.0
1979-07-14 01:13:05.800 ,4,1,0.,12.0,0.,12.0,0.,12.0,0.,12.0
1979-07-14 01:13:17.800 ,7,1,0.,12.0,0.,12.0,0.,12.0,0.,12.0
1979-07-14 01:13:29.800 ,7,1,0.,12.0,0.,12.0,0.,12.0,0.,12.0
1979-07-14 01:13:41.800 ,3,1,0.,12.0,0.,12.0,0.,12.0,0.,12.0
1979-07-14 01:13:53.800 ,3,1,0.,12.0,0.,12.0,0.,12.0,0.,12.0
1979-07-14 01:14:05.800 ,0,1,0.,12.0,0.,12.0,0.,12.0,0.,12.0
1979-07-14 01:14:17.800 ,0,1,0.,12.0,0.,12.0,0.,12.0,0.,12.0
1979-07-14 01:14:29.800 ,4,1,0.,12.0,0.,12.0,0.,12.0,0.,12.0
1979-07-14 01:14:41.800 ,4,1,0.,12.0,0.,12.0,0.,12.0,0.,12.0
1979-07-14 01:14:53.800 ,7,1,0.,12.0,0.,12.0,0.,12.0,0.,12.0
1979-07-14 01:15:05.800 ,7,1,0.,12.0,0.,12.0,0.,12.0,0.,12.0
1979-07-14 01:15:17.800 ,3,1,0.,12.0,0.,12.0,0.,12.0,0.,12.0
1979-07-14 01:15:29.800 ,3,1,0.,12.0,0.,12.0,0.,12.0,0.,12.0
1979-07-14 01:15:41.800 ,0,1,0.,12.0,0.,12.0,0.,12.0,0.,12.0
1979-07-14 01:15:53.800 ,0,1,0.,12.0,0.,12.0,0.,12.0,0.,12.0
1979-07-14 01:16:05.800 ,4,1,0.,12.0,0.,12.0,0.,12.0,0.,12.0
1979-07-14 01:16:17.800 ,4,1,0.,12.0,0.,12.0,0.,12.0,0.,12.0
1979-07-14 01:16:29.800 ,7,1,0.,12.0,0.,12.0,0.,12.0,0.,12.0
1979-07-14 01:16:41.800 ,7,1,0.,12.0,0.,12.0,0.,12.0,0.,12.0
1979-07-14 01:16:53.800 ,3,1,0.,12.0,0.,12.0,0.,12.0,0.,12.0
1979-07-14 01:17:05.800 ,3,1,0.,12.0,0.,12.0,0.,12.0,0.,12.0
1979-07-14 01:17:17.800 ,0,1,0.,12.0,0.,12.0,0.,12.0,0.,12.0
1979-07-14 01:17:29.800 ,0,1,0.,12.0,0.,12.0,0.,12.0,0.,12.0